EW1186 Weather Reports


time (UTC)temp
F
wind
direction
speed
knots
gust
knots
rain 1hr
in
rain 24hr
in
rain mn
in
humidity
%
barometer
mb
20260505001523 72 360 0.0 2.6 0.00 0.00 0.00 40 1013.5
20260505000119 74 92 0.0 0.0 0.00 0.00 0.00 40 1013.3
20260504234529 75 106 0.0 0.9 0.00 0.00 0.00 35 1013.1
20260504233125 76 196 0.0 2.6 0.00 0.00 0.00 34 1013.0
20260504231555 76 209 0.0 5.2 0.00 0.00 0.00 33 1013.0
20260504230019 77 215 0.0 6.1 0.00 0.00 0.00 31 1012.9
20260504224611 79 209 1.7 7.0 0.00 0.00 0.00 29 1012.8
20260504223035 79 225 0.0 6.1 0.00 0.00 0.00 30 1012.8
20260504221622 80 179 2.6 6.1 0.00 0.00 0.00 28 1012.9
20260504220041 80 185 3.5 11.3 0.00 0.00 0.00 28 1012.9
20260504214633 81 219 0.9 5.2 0.00 0.00 0.00 30 1012.9
20260504213053 80 196 1.7 7.0 0.00 0.00 0.00 29 1012.9
20260504211511 80 167 0.9 8.7 0.00 0.00 0.00 31 1012.9
20260504210112 81 234 1.7 7.8 0.00 0.00 0.00 29 1013.1
20260504204528 80 181 2.6 7.8 0.00 0.00 0.00 30 1013.3
20260504203124 81 160 1.7 9.6 0.00 0.00 0.00 32 1013.4
20260504201549 80 254 0.9 7.8 0.00 0.00 0.00 35 1013.6
20260504200012 82 163 1.7 7.0 0.00 0.00 0.00 33 1013.8
20260504194607 80 198 0.9 5.2 0.00 0.00 0.00 32 1013.9
20260504193027 80 173 1.7 5.2 0.00 0.00 0.00 33 1014.0
20260504191511 80 305 0.9 5.2 0.00 0.00 0.00 34 1014.3
20260504190049 80 208 0.9 5.2 0.00 0.00 0.00 32 1014.5
20260504184545 80 313 2.6 7.0 0.00 0.00 0.00 33 1014.5
20260504183041 79 200 0.0 5.2 0.00 0.00 0.00 35 1014.7
20260504181539 79 161 1.7 6.1 0.00 0.00 0.00 33 1014.9
20260504180038 78 175 0.0 4.3 0.00 0.00 0.00 34 1014.8
20260504174534 79 167 0.0 5.2 0.00 0.00 0.00 37 1015.2
20260504173033 77 227 0.9 7.8 0.00 0.00 0.00 34 1015.2
20260504171543 77 232 0.9 5.2 0.00 0.00 0.00 36 1015.3
20260504090105 40 223 0.0 0.0 0.00 0.01 0.00 88 1016.9
20260504081550 40 223 0.0 0.0 0.00 0.01 0.00 88 1016.7
20260504044526 43 223 0.0 0.0 0.00 0.01 0.00 81 1017.0
20260504043037 44 223 0.0 0.0 0.00 0.01 0.00 81 1017.1
20260504041523 44 223 0.0 0.0 0.00 0.01 0.00 81 1017.1
20260504040024 45 223 0.0 0.0 0.00 0.01 0.00 81 1017.1
20260504034519 45 223 0.0 0.0 0.00 0.01 0.01 80 1017.2
20260504033019 46 223 0.0 0.0 0.00 0.01 0.01 80 1017.2
20260504031518 46 223 0.0 0.0 0.00 0.01 0.01 79 1017.2
20260504030017 47 223 0.0 0.0 0.00 0.01 0.01 79 1017.2
20260504024517 48 223 0.0 0.0 0.00 0.01 0.01 77 1017.0
20260504023019 48 223 0.0 0.0 0.00 0.01 0.01 75 1016.9
20260504021515 49 223 0.0 0.0 0.00 0.01 0.01 74 1016.8
20260504020015 50 223 0.0 0.0 0.00 0.01 0.01 72 1016.6
20260504014515 52 223 0.0 0.0 0.00 0.01 0.01 70 1016.5
20260504013018 53 223 0.0 0.0 0.00 0.01 0.01 68 1016.3
20260504011520 55 223 0.0 0.0 0.00 0.01 0.01 65 1016.3
20260504010014 56 223 0.0 0.0 0.00 0.01 0.01 62 1016.0
20260504004514 58 223 0.0 0.0 0.00 0.01 0.01 59 1015.8
20260504003012 60 223 0.0 0.0 0.00 0.01 0.01 56 1015.7